Waarnemingen

Advertentie
Mijn weer
Dax, Frankrijk (7603): temperatuur & dauwpunt: 20.09.2017 14:00:00 - 26.09.2017 14:00:00 (CEST)Dax, Frankrijk (7603): temperatuur 5cm: 20.09.2017 14:00:00 - 26.09.2017 14:00:00 (CEST)Dax, Frankrijk (7603): temperatuur -20cm & temperatuur -100cm: 20.09.2017 14:00:00 - 26.09.2017 14:00:00 (CEST)Dax, Frankrijk (7603): windsnelheid & windstoten: 20.09.2017 14:00:00 - 26.09.2017 14:00:00 (CEST)Dax, Frankrijk (7603): windrichting: 20.09.2017 14:00:00 - 26.09.2017 14:00:00 (CEST)Dax, Frankrijk (7603): luchtdruk: 20.09.2017 14:00:00 - 26.09.2017 14:00:00 (CEST)Dax, Frankrijk (7603): zicht: 20.09.2017 14:00:00 - 26.09.2017 14:00:00 (CEST)Dax, Frankrijk (7603): Zonneschijnduur: 20.09.2017 14:00:00 - 26.09.2017 14:00:00 (CEST)Dax, Frankrijk (7603): neerslag: 20.09.2017 14:00:00 - 26.09.2017 14:00:00 (CEST)
Datum & Tijd tt [°C] td [°C] tt 5cm [°C] tt -20cm [°C] tt -100cm [°C] ff [km/u] ff [kn] fx [km/u] fx [kn] dd ppp [hPa] vv [km] sd [min] rr [mm]
26.09.2017 14:00:00 20,8 12,2 21,3 19,0 19,5 4 2 14 7 OZO 1022,3 15 54 0,0
26.09.2017 13:00:00 20,0 13,0 21,2 18,9 19,5 4 2 14 8 OZO 1022,8 15 60 0,0
26.09.2017 12:00:00 17,1 15,4 16,5 18,9 19,5 5 3 11 6 OZO 1023,0 1,5 27 0,0
26.09.2017 11:00:00 14,6 14,3 15,5 18,9 19,5 5 3 9 5 OZO 1023,1 0,5 30 0,0
26.09.2017 10:00:00 13,2 13,0 12,7 19,0 19,5 3 2 6 4 O 1023,3 4,0 18 0,0
26.09.2017 09:00:00 12,4 12,2 11,7 19,1 19,5 0 0 4 2 N 1023,0 0,5 7 0,0
26.09.2017 08:00:00 12,0 11,8 11,6 19,2 19,5 0 0 5 3 N 1022,9 0,7 0 0,0
26.09.2017 07:00:00 12,1 11,8 11,2 19,3 19,5 4 2 5 3 ZO 1022,6 0,8 0 0,0
26.09.2017 06:00:00 12,5 12,0 11,6 19,4 19,5 0 0 0 0 N 1022,7 0,1 0 0,0
26.09.2017 05:00:00 13,0 12,5 11,8 19,5 19,5 0 0 5 3 N 1022,6 0,9 0 0,2
26.09.2017 04:00:00 14,0 13,4 13,2 19,6 19,5 0 0 5 3 N 1022,6 8 0 0,0
26.09.2017 03:00:00 14,3 13,7 13,6 19,7 19,5 3 2 5 3 NNW 1022,8 8 0 0,0
26.09.2017 02:00:00 15,0 14,0 14,4 19,7 19,4 0 0 4 2 N 1022,9 12 0 0,0
26.09.2017 01:00:00 15,1 14,3 14,4 19,8 19,4 2 1 6 3 Z 1023,2 12 0 0,0
26.09.2017 00:00:00 15,3 14,3 13,9 19,9 19,5 3 1 8 4 Z 1023,5 12 0 0,0
25.09.2017 23:00:00 15,9 14,6 14,7 20,0 19,5 5 3 16 9 ZZW 1023,5 13 0 0,0
25.09.2017 22:00:00 15,8 14,5 14,6 20,0 19,4 0 0 5 3 N 1023,5 14 0 0,0
25.09.2017 21:00:00 16,5 14,1 15,6 20,1 19,4 0 0 6 3 N 1023,2 15 0 0,0
25.09.2017 20:00:00 18,0 14,5 17,4 20,1 19,4 5 3 21 12 NW 1023,1 16 0 0,0
25.09.2017 19:00:00 19,2 14,7 19,4 20,1 19,4 13 7 26 14 NW 1022,5 19 20 0,0
25.09.2017 18:00:00 19,6 15,0 20,2 20,0 19,4 13 7 29 16 NW 1022,0 16 28 0,0
25.09.2017 17:00:00 19,8 14,4 20,7 19,9 19,4 14 8 34 19 WNW 1021,7 15 8 0,0
25.09.2017 16:00:00 20,2 15,0 21,0 19,8 19,4 16 9 37 20 NW 1021,6 15 18 0,0
25.09.2017 15:00:00 20,5 16,7 19,1 19,7 19,4 13 7 35 19 NW 1021,2 10 29 0,0
25.09.2017 14:00:00 19,6 17,0 16,9 19,7 19,4 10 5 37 20 W 1021,4 8 9 1,4
25.09.2017 13:00:00 20,3 15,9 18,3 19,6 19,4 11 6 29 16 WZW 1021,4 9 18 0,6
25.09.2017 12:00:00 20,3 17,5 20,0 19,6 19,3 15 8 24 13 ZW 1021,4 10 43 0,0
25.09.2017 11:00:00 18,7 17,2 16,9 19,6 19,3 10 5 16 8 ZZW 1021,5 8 7 0,0
25.09.2017 10:00:00 17,2 15,9 16,2 19,7 19,4 8 4 16 9 WZW 1021,3 10 0 0,0
25.09.2017 09:00:00 16,9 14,9 15,7 19,7 19,4 6 3 10 6 WZW 1020,8 10 0 0,0
25.09.2017 08:00:00 16,1 15,5 15,0 19,8 19,3 4 2 6 3 ZZO 1020,5 6 0 0,0
25.09.2017 07:00:00 16,4 15,6 15,8 19,8 19,3 4 2 11 6 WNW 1020,3 6 0 0,0
25.09.2017 06:00:00 17,1 16,1 16,5 19,9 19,3 7 4 18 10 WZW 1020,1 8 0 0,2
25.09.2017 05:00:00 17,8 16,3 16,8 19,9 19,3 4 2 11 6 OZO 1019,3 9 0 0,4
25.09.2017 04:00:00 18,6 16,2 18,1 20,0 19,3 6 4 26 14 W 1020,1 12 0 0,0
25.09.2017 03:00:00 19,0 16,8 18,9 20,0 19,3 13 7 29 16 W 1020,1 13 0 0,0
25.09.2017 02:00:00 19,4 17,4 19,3 20,1 19,3 15 8 31 17 W 1019,3 13 0 0,0
25.09.2017 01:00:00 19,3 18,5 18,8 20,1 19,3 15 8 26 14 W 1018,9 4,7 0 0,0
25.09.2017 00:00:00 19,1 18,4 16,8 20,2 19,3 13 7 18 10 W 1017,8 6 0 0,0
24.09.2017 23:00:00 18,7 17,4 17,6 20,2 19,3 0 0 6 4 N 1016,9 9 0 0,0
24.09.2017 22:00:00 19,6 17,6 18,2 20,3 19,3 0 0 7 4 N 1016,9 13 0 0,0
24.09.2017 21:00:00 21,3 17,9 20,1 20,3 19,3 0 0 5 3 N 1016,9 14 0 0,0
24.09.2017 20:00:00 23,7 19,0 22,2 20,2 19,3 2 1 8 4 ZZO 1016,7 19 1 0,0
24.09.2017 19:00:00 27,0 16,9 28,3 20,1 19,3 6 3 10 6 N 1016,7 26 48 0,0
24.09.2017 18:00:00 28,3 16,9 30,8 19,9 19,3 4 2 14 7 NO 1016,7 20 60 0,0
24.09.2017 17:00:00 27,9 17,1 29,7 19,6 19,3 6 3 11 6 NO 1017,0 22 51 0,0
24.09.2017 16:00:00 28,2 15,8 29,0 19,3 19,3 6 3 14 8 ZZO 1017,3 27 60 0,0
24.09.2017 15:00:00 26,9 16,2 28,8 19,1 19,3 6 4 16 9 OZO 1017,9 24 60 0,0
24.09.2017 14:00:00 25,2 16,6 26,6 19,0 19,3 6 4 14 8 OZO 1018,5 13 60 0,0
24.09.2017 13:00:00 22,3 17,7 23,9 18,8 19,3 5 3 13 7 ONO 1019,1 12 60 0,0
24.09.2017 12:00:00 19,4 17,4 19,8 18,8 19,3 6 4 11 6 ONO 1019,5 9 9 0,0
24.09.2017 11:00:00 18,3 17,7 18,8 18,8 19,3 6 3 11 6 ZZO 1019,6 6 0 0,0
24.09.2017 10:00:00 17,1 16,8 15,4 18,8 19,3 4 2 8 5 ZO 1019,6 7 43 0,0
24.09.2017 09:00:00 15,2 15,0 13,8 18,9 19,3 3 2 6 3 OZO 1019,4 0,9 0 0,0
24.09.2017 08:00:00 15,3 15,0 13,8 18,9 19,3 3 2 4 2 O 1019,3 0,2 0 0,0
24.09.2017 07:00:00 16,0 15,7 14,3 19,0 19,3 0 0 8 4 N 1019,1 0,1 0 0,2
24.09.2017 06:00:00 16,5 16,2 15,3 19,1 19,3 2 1 8 4 ZZO 1019,1 0,2 0 0,0
24.09.2017 05:00:00 17,4 16,9 16,6 19,1 19,3 4 2 13 7 WZW 1019,3 4,1 0 0,0
24.09.2017 04:00:00 17,9 17,4 17,5 19,1 19,3 8 4 17 9 WZW 1019,6 4,7 0 0,0
24.09.2017 03:00:00 18,1 17,6 17,2 19,3 19,3 10 5 19 10 ZW 1019,5 5 0 0,0
24.09.2017 02:00:00 17,5 16,5 14,5 19,3 19,3 13 7 19 10 WZW 1019,4 12 0 0,0
24.09.2017 01:00:00 15,9 14,8 15,1 19,4 19,3 4 2 14 8 ZZO 1019,1 13 0 0,0
24.09.2017 00:00:00 16,8 15,8 15,0 19,5 19,3 0 0 5 3 N 1018,7 13 0 0,0
23.09.2017 23:00:00 17,8 16,5 16,8 19,6 19,3 0 0 4 2 N 1018,3 17 0 0,0
23.09.2017 22:00:00 18,5 16,7 17,4 19,6 19,3 3 1 4 2 ZZO 1018,1 15 0 0,0
23.09.2017 21:00:00 20,9 16,7 19,4 19,6 19,3 0 0 5 3 N 1017,8 22 0 0,0
23.09.2017 20:00:00 24,3 15,2 21,9 19,5 19,3 0 0 5 3 N 1017,2 29 34 0,0
23.09.2017 19:00:00 27,3 14,7 30,1 19,3 19,3 3 2 8 5 NW 1016,9 31 60 0,0
23.09.2017 18:00:00 28,0 14,6 30,7 19,0 19,3 4 2 10 5 ZZW 1016,8 39 60 0,0
23.09.2017 17:00:00 27,8 14,1 30,9 18,8 19,3 6 3 14 8 Z 1017,0 32 60 0,0
23.09.2017 16:00:00 27,7 13,6 29,9 18,5 19,3 5 3 15 8 ZZO 1017,6 32 60 0,0
23.09.2017 15:00:00 26,4 14,2 28,8 18,2 19,3 6 3 13 7 ONO 1017,9 28 60 0,0
23.09.2017 14:00:00 25,0 14,8 26,5 18,0 19,3 8 4 14 8 O 1018,3 24 60 0,0
23.09.2017 13:00:00 22,8 14,4 23,9 17,9 19,3 6 4 16 9 O 1018,8 22 60 0,0
23.09.2017 12:00:00 20,3 14,9 20,8 17,8 19,3 6 3 12 6 O 1019,0 23 55 0,0
23.09.2017 11:00:00 17,6 14,5 17,6 17,9 19,3 9 5 19 10 OZO 1019,4 22 60 0,0
23.09.2017 10:00:00 14,7 12,9 12,5 17,9 19,3 5 3 13 7 NO 1019,5 14 56 0,0
23.09.2017 09:00:00 11,5 11,2 10,0 18,0 19,3 6 3 9 5 ONO 1019,5 8 47 0,0
23.09.2017 08:00:00 10,7 10,4 9,4 18,1 19,3 6 3 9 5 ONO 1019,7 5 0 0,0
23.09.2017 07:00:00 11,1 10,8 10,1 18,2 19,3 5 3 11 6 O 1019,9 4,8 0 0,0
23.09.2017 06:00:00 11,4 11,1 10,7 18,3 19,3 7 4 12 6 OZO 1020,1 5 0 0,2
23.09.2017 05:00:00 11,9 11,4 10,8 18,4 19,3 6 3 11 6 O 1020,6 7 0 0,0
23.09.2017 04:00:00 12,0 11,5 10,8 18,5 19,3 5 3 7 4 O 1021,2 8 0 0,0
23.09.2017 03:00:00 12,2 11,6 11,2 18,6 19,3 5 3 7 4 ZO 1021,8 3,1 0 0,0
23.09.2017 02:00:00 13,9 13,4 12,2 18,7 19,3 3 2 6 3 ONO 1021,8 9 0 0,0
23.09.2017 01:00:00 13,5 12,4 12,5 18,7 19,3 0 0 11 6 N 1022,2 8 0 0,0
23.09.2017 00:00:00 15,0 14,4 13,1 18,8 19,3 5 3 11 6 NO 1022,3 8 0 0,0
22.09.2017 23:00:00 15,3 14,5 14,3 18,9 19,3 5 3 6 3 NNW 1022,3 6 0 0,0
22.09.2017 22:00:00 16,0 14,5 15,2 18,9 19,3 0 0 5 3 N 1022,2 10 0 0,0
22.09.2017 21:00:00 17,8 14,9 16,7 18,9 19,4 0 0 6 3 N 1022,0 15 0 0,0
22.09.2017 20:00:00 19,1 14,8 18,5 18,8 19,3 3 2 12 7 OZO 1021,8 13 40 0,0
22.09.2017 19:00:00 20,2 14,8 21,2 18,7 19,3 9 5 13 7 OZO 1021,7 9 53 0,0
22.09.2017 18:00:00 20,3 14,6 21,3 18,6 19,3 7 4 16 8 ZO 1021,7 23 20 0,0
22.09.2017 17:00:00 20,6 14,9 22,1 18,4 19,4 8 4 14 8 OZO 1021,9 12 26 0,0
22.09.2017 16:00:00 20,4 15,2 21,2 18,3 19,4 5 3 11 6 ZZO 1022,5 13 19 0,0
22.09.2017 15:00:00 19,3 15,0 20,2 18,2 19,4 4 2 11 6 Z 1022,6 17 0 0,0
22.09.2017 14:00:00 18,6 15,3 19,2 18,1 19,3 3 2 9 5 ZZO 1022,8 8 0 0,0
22.09.2017 13:00:00 17,2 15,4 17,5 18,1 19,3 4 2 10 6 - 1022,9 5 0 0,0
22.09.2017 12:00:00 15,9 15,1 16,0 18,0 19,3 5 3 7 4 OZO 1022,6 4,0 0 0,0
22.09.2017 11:00:00 14,8 14,2 14,5 18,1 19,4 2 1 9 5 - 1022,3 1,5 0 0,0
22.09.2017 10:00:00 14,2 13,7 13,6 18,1 19,3 6 4 9 5 ONO 1022,1 5 0 0,0
22.09.2017 09:00:00 13,7 13,1 13,6 18,2 19,3 0 0 8 5 N 1022,0 5 0 0,0
22.09.2017 08:00:00 14,1 13,6 13,0 18,2 19,3 3 2 5 3 ONO 1021,4 10 0 0,0
22.09.2017 07:00:00 13,7 13,2 13,0 18,3 19,4 5 3 10 5 ZZO 1020,9 6 0 0,0
22.09.2017 06:00:00 13,8 13,3 13,0 18,3 19,3 2 1 8 4 O 1020,6 13 0 0,0
22.09.2017 05:00:00 13,5 13,0 12,7 18,4 19,4 0 0 4 2 N 1021,1 13 0 0,0
22.09.2017 04:00:00 13,7 13,2 12,7 18,5 19,4 2 1 4 2 Z 1021,4 11 0 0,0
22.09.2017 03:00:00 13,6 13,1 12,4 18,6 19,4 2 1 4 2 Z 1021,5 10 0 0,0
22.09.2017 02:00:00 14,0 13,4 12,8 18,6 19,4 0 0 3 2 N 1021,3 11 0 0,0
22.09.2017 01:00:00 14,9 14,3 13,5 18,7 19,4 0 0 5 3 N 1020,9 13 0 0,0
22.09.2017 00:00:00 15,5 14,9 14,5 18,8 19,4 3 1 6 3 ZZW 1020,7 14 0 0,0
21.09.2017 23:00:00 15,8 14,5 14,9 18,8 19,4 2 1 7 4 ZZO 1020,5 17 0 0,0
21.09.2017 22:00:00 17,0 15,5 16,4 18,8 19,4 3 1 10 6 W 1020,4 20 0 0,0
21.09.2017 21:00:00 17,6 15,6 17,2 18,8 19,4 4 2 13 7 W 1020,0 25 0 0,0
21.09.2017 20:00:00 18,7 15,8 18,2 18,7 19,5 7 4 19 10 W 1019,4 27 27 0,0
21.09.2017 19:00:00 20,2 15,2 20,7 18,6 19,4 9 5 19 10 W 1018,6 27 40 0,0
21.09.2017 18:00:00 21,5 16,0 22,3 18,4 19,4 10 5 25 13 W 1017,9 37 38 0,0
21.09.2017 17:00:00 22,9 15,0 24,7 18,1 19,4 15 8 25 13 W 1017,4 15 60 0,0
21.09.2017 16:00:00 23,8 14,8 26,3 17,9 19,5 13 7 24 13 WZW 1017,0 28 60 0,0
21.09.2017 15:00:00 23,2 14,5 24,9 17,7 19,5 14 7 29 16 W 1017,0 15 60 0,0
21.09.2017 14:00:00 22,4 15,5 24,6 17,4 19,4 13 7 23 13 W 1017,2 15 57 0,0
21.09.2017 13:00:00 22,3 16,6 22,5 17,3 19,5 11 6 21 12 W 1017,4 15 60 0,0
21.09.2017 12:00:00 19,6 15,5 20,3 17,2 19,5 11 6 19 10 WZW 1017,4 15 60 0,0
21.09.2017 11:00:00 16,7 12,6 16,1 17,2 19,5 3 2 8 5 Z 1017,4 28 60 0,0
21.09.2017 10:00:00 13,0 10,9 10,1 17,3 19,5 0 0 6 4 N 1017,4 25 38 0,0
21.09.2017 09:00:00 9,7 8,9 7,2 17,4 19,5 2 1 5 3 OZO 1017,1 16 33 0,0
21.09.2017 08:00:00 7,5 6,8 6,8 17,5 19,5 0 0 4 2 N 1016,7 10 0 0,0
21.09.2017 07:00:00 8,0 6,9 7,1 17,7 19,5 0 0 6 3 N 1016,7 10 0 0,0
21.09.2017 06:00:00 9,7 8,5 8,4 17,8 19,5 2 1 9 5 NNO 1016,5 22 0 0,0
21.09.2017 05:00:00 9,7 8,6 8,2 17,9 19,5 7 4 10 6 ONO 1016,7 24 0 0,0
21.09.2017 04:00:00 9,6 8,5 8,7 18,0 19,5 2 1 12 6 OZO 1016,8 30 0 0,0
21.09.2017 03:00:00 11,4 9,3 9,6 18,1 19,5 7 4 9 5 NO 1017,2 35 0 0,0
21.09.2017 02:00:00 12,2 9,4 10,6 18,2 19,5 5 3 11 6 O 1017,1 36 0 0,0
21.09.2017 01:00:00 13,0 9,4 11,6 18,3 19,5 8 5 12 7 O 1017,3 32 0 0,0
21.09.2017 00:00:00 13,6 9,0 11,6 18,4 19,5 6 3 13 7 O 1017,5 44 0 0,0
20.09.2017 23:00:00 14,3 9,3 12,6 18,5 19,5 7 4 10 5 O 1017,7 39 0 0,0
20.09.2017 22:00:00 16,0 9,0 14,1 18,5 19,5 7 4 19 10 O 1018,0 40 0 0,0
20.09.2017 21:00:00 18,0 8,5 16,6 18,5 19,6 13 7 19 10 O 1018,2 42 0 0,0
20.09.2017 20:00:00 19,1 8,4 17,4 18,4 19,5 10 6 16 9 O 1018,4 47 39 0,0
20.09.2017 19:00:00 21,6 8,8 22,6 18,3 19,6 11 6 21 12 O 1018,7 33 60 0,0
20.09.2017 18:00:00 22,3 8,4 24,2 18,1 19,6 13 7 23 13 O 1018,9 33 60 0,0
20.09.2017 17:00:00 22,3 9,5 24,9 17,9 19,6 11 6 23 13 O 1019,5 40 60 0,0
20.09.2017 16:00:00 22,0 8,5 24,5 17,7 19,6 11 6 23 12 O 1020,0 40 60 0,0
20.09.2017 15:00:00 21,5 9,4 23,3 17,4 19,6 16 8 28 15 O 1020,4 40 60 0,0
20.09.2017 14:00:00 20,2 10,0 22,0 17,2 19,6 11 6 26 14 O 1021,2 30 60 0,0

tt = temperatuur
td = dauwpunt
tt 5cm = temperatuur 5cm
tt -20cm = temperatuur -20cm
tt -100cm = temperatuur -100cm
ff = windsnelheid
fx = windstoten
dd = windrichting
ppp = luchtdruk
vv = zicht
sd = Zonneschijnduur
rr = neerslag

Weerstations in de omgeving